Mason City, IA

8:58 PM CST on November 20, 2017 (GMT -0600)
Mason City Municipal

Weather History for KMCW - February, 2013

Change the Weather History Date:

Monday, February 25, 2013

  Actual Average Record
Temperature  
Mean Temperature 26 °F 24 °F  
Max Temperature 34 °F 33 °F 62 °F (2000)
Min Temperature 18 °F 16 °F -23 °F (1940)
Degree Days  
Heating Degree Days 39 41  
Month to date heating degree days 1123 1121  
Since 1 July heating degree days 5445 5732  
Cooling Degree Days 0 0  
Month to date cooling degree days 0 0  
Year to date cooling degree days 0 0  
Moisture  
Dew Point 21 °F    
Average Humidity 79    
Maximum Humidity 92    
Minimum Humidity 66    
Precipitation  
Precipitation T in 0.04 in 0.88 in (1951)
Month to date precipitation 0.73 0.86  
Year to date precipitation 1.20 1.68  
Snow  
Snow T in 0.20 in 6.10 in (2007)
Month to date snowfall 8.3 7.0  
Since 1 July snowfall 21.5 31.8  
Snow Depth 4.00 in    
Sea Level Pressure  
Sea Level Pressure 30.07 in    
Wind  
Wind Speed 4 mph (NE)    
Max Wind Speed 9 mph    
Max Gust Speed 10 mph    
Visibility 3 miles    
Events Fog    
T = Trace of Precipitation, MM = Missing Value Source: NWS Daily Summary

Daily Weather History Graph

Daily Weather History Graph

Search for Another Location

Airport or City:

Trip Planner

Search our weather history database for the weather conditions in past years. The results will help you decide how hot, cold, wet, or windy it might be!

Date:

Astronomy

Feb. 25, 2013 Rise Set
Actual Time 6:55 AM CST 5:57 PM CST
Civil Twilight 6:26 AM CST 6:26 PM CST
Nautical Twilight 5:53 AM CST 6:59 PM CST
Astronomical Twilight 5:20 AM CST 7:32 PM CST
Moon 6:13 PM CST (2/25) 6:25 AM CST (2/25)
Length of Visible Light 11h 59m
Length of Day
11h 02m
Full, 100% of the Moon is Illuminated
Feb 25
Full
Feb 25
Full
Mar 4
Last Quarter
Mar 11
New
Mar 19
First Quarter

Hourly Weather History & Observations

Time (CST) Temp. Windchill Dew Point Humidity Pressure Visibility Wind Dir Wind Speed Gust Speed Precip Events Conditions
12:30 AM 26.6 °F 22.6 °F 21.2 °F 80% 30.08 in 3.0 mi SSE 3.5 mph - 0.00 in   Haze
12:53 AM 26.1 °F - 21.0 °F 81% 30.12 in 4.0 mi Calm Calm - 0.00 in   Haze
1:53 AM 26.1 °F - 21.9 °F 84% 30.12 in 4.0 mi Calm Calm - N/A   Overcast
2:53 AM 25.0 °F - 21.0 °F 85% 30.11 in 3.0 mi Calm Calm - N/A   Overcast
3:32 AM 23.0 °F 18.4 °F 19.4 °F 86% 30.07 in 2.5 mi SE 3.5 mph - N/A   Overcast
3:53 AM 21.9 °F - 19.0 °F 89% 30.10 in 3.0 mi Calm Calm - N/A   Mostly Cloudy
4:12 AM 19.4 °F 14.3 °F 17.6 °F 93% 30.06 in 2.5 mi SE 3.5 mph - N/A   Scattered Clouds
4:53 AM 21.9 °F 14.5 °F 19.0 °F 89% 30.11 in 2.5 mi South 5.8 mph - N/A   Overcast
5:10 AM 23.0 °F 14.7 °F 19.4 °F 86% 30.08 in 3.0 mi South 6.9 mph - N/A   Overcast
5:53 AM 24.1 °F 19.7 °F 19.9 °F 84% 30.11 in 4.0 mi South 3.5 mph - N/A   Overcast
6:53 AM 21.9 °F - 19.0 °F 89% 30.11 in 3.0 mi Calm Calm - N/A   Overcast
7:07 AM 21.2 °F - 17.6 °F 86% 30.07 in 2.5 mi Calm Calm - N/A   Overcast
7:53 AM 24.1 °F - 19.9 °F 84% 30.13 in 2.5 mi Calm Calm - N/A   Overcast
8:05 AM 24.8 °F - 19.4 °F 80% 30.09 in 2.5 mi Calm Calm - N/A   Haze
8:50 AM 24.8 °F - 21.2 °F 86% 30.09 in 2.5 mi Calm Calm - N/A   Overcast
8:53 AM 25.0 °F - 21.0 °F 85% 30.13 in 2.5 mi Calm Calm - N/A   Overcast
9:53 AM 28.0 °F - 21.9 °F 78% 30.13 in 2.5 mi Calm Calm - N/A   Haze
10:01 AM 28.4 °F - 21.2 °F 74% 30.09 in 3.0 mi Calm Calm - N/A   Haze
10:26 AM 28.4 °F 24.6 °F 21.2 °F 74% 30.10 in 2.5 mi North 3.5 mph - N/A   Haze
10:53 AM 30.0 °F - 21.9 °F 72% 30.12 in 3.0 mi Calm Calm - N/A   Haze
11:53 AM 32.0 °F 28.7 °F 23.0 °F 69% 30.12 in 3.0 mi North 3.5 mph - N/A   Haze
12:15 PM 32.0 °F - 24.8 °F 75% 30.08 in 3.0 mi Calm Calm - N/A   Haze
12:53 PM 33.1 °F 28.7 °F 24.1 °F 70% 30.09 in 3.0 mi NNE 4.6 mph - N/A   Haze
1:53 PM 33.1 °F 28.7 °F 25.0 °F 72% 30.07 in 3.0 mi NNE 4.6 mph - N/A   Haze
2:53 PM 34.0 °F 28.0 °F 26.1 °F 73% 30.06 in 3.0 mi NNE 6.9 mph - N/A   Haze
3:53 PM 33.1 °F 27.7 °F 26.1 °F 75% 30.07 in 3.0 mi NE 5.8 mph - N/A   Haze
4:12 PM 32.0 °F 25.6 °F 26.6 °F 80% 30.03 in 3.0 mi NE 6.9 mph - N/A   Haze
4:53 PM 32.0 °F 25.6 °F 26.1 °F 79% 30.06 in 3.0 mi NE 6.9 mph - N/A   Haze
5:37 PM 30.2 °F 24.3 °F 26.6 °F 86% 30.03 in 2.5 mi NNE 5.8 mph - N/A   Haze
5:53 PM 30.0 °F 24.1 °F 25.0 °F 82% 30.06 in 2.5 mi NNE 5.8 mph - N/A   Haze
6:22 PM 28.4 °F 22.2 °F 24.8 °F 86% 30.03 in 3.0 mi North 5.8 mph - N/A   Clear
6:53 PM 28.0 °F 21.7 °F 24.1 °F 85% 30.07 in 3.0 mi NNE 5.8 mph - N/A   Clear
7:07 PM 24.8 °F 19.1 °F 21.2 °F 86% 30.03 in 2.5 mi NE 4.6 mph - N/A   Clear
7:53 PM 25.0 °F 16.3 °F 21.9 °F 88% 30.05 in 2.0 mi NNE 8.1 mph - N/A   Clear
8:53 PM 25.0 °F 16.3 °F 21.9 °F 88% 30.03 in 2.5 mi North 8.1 mph - N/A   Clear
9:53 PM 21.0 °F 13.4 °F 19.0 °F 92% 30.04 in 2.5 mi NNE 5.8 mph - N/A   Clear
10:10 PM 19.4 °F 11.5 °F 17.6 °F 93% 30.00 in 1.5 mi NNE 5.8 mph - N/A   Clear
10:36 PM 19.4 °F 10.4 °F 17.6 °F 93% 29.99 in 0.5 mi NE 6.9 mph - N/A Fog Light Freezing Fog
10:50 PM 19.4 °F 9.5 °F 15.8 °F 86% 29.99 in 1.0 mi NE 8.1 mph - N/A   Clear
10:53 PM 19.0 °F 9.0 °F 16.0 °F 88% 30.02 in 1.0 mi NE 8.1 mph - N/A   Clear
11:18 PM 17.6 °F 8.2 °F 15.8 °F 93% 29.99 in 0.8 mi NE 6.9 mph - N/A   Clear
11:40 PM 19.4 °F 10.4 °F 15.8 °F 86% 29.99 in 1.5 mi NNE 6.9 mph - N/A   Clear
11:53 PM 19.0 °F 10.0 °F 17.1 °F 92% 30.01 in 1.2 mi NNE 6.9 mph - N/A   Clear